Starlink 2644

operational
NORAD ID: 48442 Int'l Des: 2021-040 Owner: SPXS Country: US Constellation: starlink
LEOCIRCULARSTARLINK_TYPE

关于 Starlink 2644

正在加载描述...

实时位置

正在加载3D地球...

即将过境

高度历史

Altitude vs Time

uPlot chart will show altitude changes over time

两行轨道根数

1 48442U 21040Q 26036.03139683 -.00029763 00000-0 -19913-2 0 9993
2 48442 53.0552 328.2282 0002171 74.3667 285.7562 15.06329325261702
Epoch: Feb 5, 2026 • Age: 9 hours

当前状态

高度 555.0 km
速度 7.58 km/s
星下点 -22.91°S, 115.15°W
发射日期 May 9, 2021
运行时间 4.7 years
类型 internet

技术详情

分类 Payload
质量 260.00 kg
干质量 248.00 kg
总质量 260.00 kg
长度 0.20 m
直径 2.80 m
跨度 9.00 m
形状 Box + pan
制造商 SPXS
平台类型 Starlink
阶段状态 In Orbit
所有者/国家 SPXS/US

大型星座

Loading constellations...